"Pseudo-MPEC" for C1FZNV5

Created 2026 Sep 5 10:35:04 UT using Find_Orb

Click here for an explanation of pseudo-MPECs

 
 Astrometry: 
     C1FZNV5*1C2026 09 05.16435320 53 46.997+11 34 17.04   ~955Z 21.94GVNEOCPV00
     C1FZNV5 1C2026 09 05.16995720 53 48.818+11 34 09.41   ~955Z 22.52GVNEOCPV00
     C1FZNV5 1C2026 09 05.17553620 53 50.658+11 34 01.85   ~955Z 21.82GVNEOCPV00
     C1FZNV5 1C2026 09 05.18112420 53 52.480+11 33 54.11   ~955Z 21.92GVNEOCPV00
     C1FZNV5 1C2026 09 05.27528820 54 23.069+11 31 41.56   ~9575 22.32GVNEOCPV00
     C1FZNV5 1C2026 09 05.27608420 54 23.332+11 31 40.69   ~9575 22.24GVNEOCPV00
     C1FZNV5 1C2026 09 05.27687820 54 23.584+11 31 39.32   ~9575 22.28GVNEOCPV00
     C1FZNV5 1C2026 09 05.27767320 54 23.839+11 31 38.35   ~9575 21.88GVNEOCPV00

Station data:
(V00) Kitt Peak-Bok  (N31.963125 W111.600190)  US/Arizona. Measurers T.
   Beuden, V. F. Carvajal, D. Fay, J. B. Fazekas, D. C. Fuls, A. R. Gibbs, A.
   D. Grauer, H. Gröller, J. K. Hogan, R. A. Kowalski, S. M. Larson, G. J.
   Leonard, D. Rankin, R. L. Seaman, F. C. Shelly, K. W. Wierzchoś. 2.25-m
   reflector + 4x4K mosaic CCD.

Orbital elements:  C1FZNV5
   Perihelion 2026 Jul 17.002266 +/- 32.4 TT =  0:03:15.8 (JD 2461238.502266)
Epoch 2026 Sep  5.0 TT = JDT 2461288.5   Earth MOID: 0.0186   Ve: 0.0528
M   5.252104147 +/- 21              (J2000 ecliptic)             AutoNEOCP
n   0.105046844 +/- 0.201           Peri.  273.907411 +/- 100
a   4.448504576 +/- 5.67            Node   330.188823 +/- 60
e   0.87817553 +/- 0.254            Incl.   19.258659 +/- 5.2
P   9.38255                H 25.05  G  0.15   U 11.7  SR
q 0.541936691 +/- 0.212    Q 8.355072461 +/- 45.8
From 8 observations 2026 Sept. 5 (2.7 hr); mean residual 0".16
Residuals in arcseconds: 
260905 V00  .37+  .26-    260905 V00  .29-  .22+    260905 V00  .01+  .11-    
260905 V00  .07-  .07-    260905 V00  .03-  .11-    260905 V00  .00   .04+    
260905 V00  .05-  .16+    260905 V00  .07+  .14+    

Ephemerides (geocentric):
Date (UTC) HH   RA             Dec           delta  r     elong  mag " sig PA
---- --------  ------------   ------------  ------ ------ -----  --- --------
2026 09 05 11  20 55 25.754   +11 27 52.64  .14543 1.1304 144.9 22.5  118 105
2026 09 05 12  20 55 39.432   +11 26 56.72  .14611 1.1310 145.0 22.5  138 102
2026 09 05 13  20 55 52.987   +11 26 01.22  .14680 1.1316 145.0 22.5  160 100
2026 09 05 14  20 56 06.422   +11 25 06.13  .14748 1.1322 145.0 22.5  182  98
2026 09 05 15  20 56 19.738   +11 24 11.45  .14817 1.1329 145.1 22.5  205  97
2026 09 05 16  20 56 32.937   +11 23 17.18  .14885 1.1335 145.1 22.5  229  95
2026 09 05 17  20 56 46.021   +11 22 23.31  .14954 1.1341 145.1 22.5  254  94
2026 09 05 18  20 56 58.990   +11 21 29.83  .15022 1.1347 145.2 22.5  280  93
2026 09 05 19  20 57 11.847   +11 20 36.74  .15091 1.1353 145.2 22.5  308  92
2026 09 05 20  20 57 24.593   +11 19 44.04  .15159 1.1360 145.2 22.5  336  91
2026 09 05 21  20 57 37.230   +11 18 51.71  .15228 1.1366 145.2 22.6  365  90
2026 09 05 22  20 57 49.759   +11 17 59.77  .15297 1.1372 145.3 22.6  396  90
2026 09 05 23  20 58 02.182   +11 17 08.19  .15365 1.1378 145.3 22.6  428  89
2026 09 06 00  20 58 14.499   +11 16 16.98  .15434 1.1384 145.3 22.6  461  88
2026 09 06 01  20 58 26.713   +11 15 26.13  .15503 1.1391 145.4 22.6  496  88
2026 09 06 02  20 58 38.824   +11 14 35.64  .15571 1.1397 145.4 22.6  531  87
2026 09 06 03  20 58 50.835   +11 13 45.50  .15640 1.1403 145.4 22.6  569  86
2026 09 06 04  20 59 02.746   +11 12 55.71  .15709 1.1409 145.4 22.6  608  86
2026 09 06 05  20 59 14.559   +11 12 06.27  .15778 1.1415 145.5 22.6  648  85
2026 09 06 06  20 59 26.275   +11 11 17.17  .15846 1.1422 145.5 22.6  690  85
2026 09 06 07  20 59 37.896   +11 10 28.40  .15915 1.1428 145.5 22.6  733  85
2026 09 06 08  20 59 49.422   +11 09 39.97  .15984 1.1434 145.5 22.7  778  84
2026 09 06 09  21 00 00.854   +11 08 51.86  .16053 1.1440 145.5 22.7  824  84
2026 09 06 10  21 00 12.195   +11 08 04.08  .16122 1.1446 145.6 22.7  872  83
2026 09 06 11  21 00 23.445   +11 07 16.63  .16191 1.1452 145.6 22.7  922  83
2026 09 06 12  21 00 34.605   +11 06 29.49  .16260 1.1459 145.6 22.7  973  83
2026 09 06 13  21 00 45.677   +11 05 42.66  .16329 1.1465 145.6 22.7 1026  82
2026 09 06 14  21 00 56.662   +11 04 56.14  .16398 1.1471 145.7 22.7 1081  82
2026 09 06 15  21 01 07.560   +11 04 09.93  .16467 1.1477 145.7 22.7 1137  82
2026 09 06 16  21 01 18.373   +11 03 24.03  .16536 1.1483 145.7 22.7 1195  82
2026 09 06 17  21 01 29.101   +11 02 38.42  .16605 1.1490 145.7 22.7 1256  81
2026 09 06 18  21 01 39.747   +11 01 53.11  .16674 1.1496 145.7 22.8 1317  81
2026 09 06 19  21 01 50.311   +11 01 08.09  .16743 1.1502 145.8 22.8 1381  81
2026 09 06 20  21 02 00.794   +11 00 23.36  .16812 1.1508 145.8 22.8 1447  81
2026 09 06 21  21 02 11.196   +10 59 38.92  .16881 1.1514 145.8 22.8 1514  81
2026 09 06 22  21 02 21.520   +10 58 54.76  .16950 1.1521 145.8 22.8 1584  80
2026 09 06 23  21 02 31.766   +10 58 10.88  .17019 1.1527 145.8 22.8 1655  80
2026 09 07 00  21 02 41.934   +10 57 27.27  .17088 1.1533 145.8 22.8 1729  80
2026 09 07 01  21 02 52.027   +10 56 43.94  .17157 1.1539 145.9 22.8 1805  80
2026 09 07 02  21 03 02.044   +10 56 00.88  .17226 1.1545 145.9 22.8 1882  80
2026 09 07 03  21 03 11.987   +10 55 18.09  .17296 1.1551 145.9 22.8 1962  80
2026 09 07 04  21 03 21.857   +10 54 35.56  .17365 1.1558 145.9 22.8 2045  79
2026 09 07 05  21 03 31.654   +10 53 53.30  .17434 1.1564 145.9 22.8 2129  79
2026 09 07 06  21 03 41.379   +10 53 11.29  .17503 1.1570 145.9 22.9 2216  79
2026 09 07 07  21 03 51.034   +10 52 29.54  .17573 1.1576 146.0 22.9 2305  79
2026 09 07 08  21 04 00.619   +10 51 48.04  .17642 1.1582 146.0 22.9 2397  79
2026 09 07 09  21 04 10.134   +10 51 06.79  .17711 1.1589 146.0 22.9 2491  79
2026 09 07 10  21 04 19.582   +10 50 25.79  .17780 1.1595 146.0 22.9 2588  79